Date_and_time,latitude,longitude,wind_speed,RelWindDirFrom,WindDirFrom,air_pressure,air_temperature,relative_humidity,Temp,platform_speed_wrt_ground,air_pressure_at_mean_sea_level,platform_orientation
2019-12-24 23:50,50.6304666666667,-96.9807616666667,5.4,7.7,327,987.52,-8.1,79,0.76,0.0,1016.23,90.0
2019-12-25 00:00,50.6304666666667,-96.9807466666667,5.8,9.7,330,987.42,-8.1,79,0.76,0.0,1016.13,43.0
2019-12-25 00:10,50.630455,-96.9807883333333,4.6,6.8,323,987.53,-8.1,79,0.77,0.0,1016.24,43.0
2019-12-25 00:20,50.6304583333333,-96.980775,4.6,6.9,318,987.54,-8.1,78,0.77,0.0,1016.25,43.0
2019-12-25 00:30,50.6304533333333,-96.980755,5.6,8.0,330,987.32,-8.1,78,0.77,0.0,1016.03,43.0
2019-12-25 00:40,50.6304533333333,-96.9807516666667,4.7,7.6,335,987.47,-8.1,79,0.77,0.0,1016.18,43.0
2019-12-25 00:50,50.630455,-96.980755,4.8,6.7,333,987.66,-8.0,79,0.77,0.0,1016.38,43.0
2019-12-25 01:00,50.6304516666667,-96.9808016666667,5.2,6.9,341,987.83,-8.0,79,0.77,0.0,1016.55,270.0
2019-12-25 01:10,50.6304533333333,-96.9807683333333,4.0,5.9,333,987.96,-8.0,78,0.77,0.0,1016.68,270.0
2019-12-25 01:20,50.63046,-96.9807683333333,4.2,6.2,330,988.13,-8.0,79,0.77,0.0,1016.86,270.0
2019-12-25 01:30,50.6304583333333,-96.980765,5.1,7.5,337,988.22,-8.0,79,0.77,0.0,1016.95,270.0
2019-12-25 01:40,50.6304566666667,-96.98076,5.4,8.6,330,988.20,-8.0,79,0.77,0.0,1016.93,270.0
2019-12-25 01:50,50.6304566666667,-96.9807583333333,6.8,9.1,349,988.10,-7.9,79,0.77,0.0,1016.83,270.0
2019-12-25 02:00,50.6304566666667,-96.9807566666667,6.1,9.4,345,988.28,-7.9,80,0.77,0.0,1017.01,0.0
2019-12-25 02:10,50.6304633333333,-96.9807516666667,5.5,7.8,341,988.38,-8.0,79,0.76,0.0,1017.12,0.0
2019-12-25 02:20,50.6304616666667,-96.980755,6.8,9.8,357,988.06,-7.9,80,0.76,0.0,1016.78,0.0
2019-12-25 02:30,50.63046,-96.9807583333333,9.3,11.4,4,987.73,-8.0,82,0.76,0.0,1016.44,0.0
2019-12-25 02:40,50.63044,-96.9807483333333,6.4,9.8,360,988.20,-8.0,83,0.77,0.0,1016.92,0.0
2019-12-25 02:50,50.6304483333333,-96.980745,5.2,6.9,356,988.72,-7.9,83,0.76,0.0,1017.46,0.0
2019-12-25 03:00,50.63045,-96.9807483333333,8.2,10.5,10,988.39,-7.9,82,0.76,0.0,1017.12,203.5
2019-12-25 03:10,50.6304483333333,-96.9807483333333,9.7,11.1,12,988.09,-8.0,82,0.75,0.0,1016.81,203.5
2019-12-25 03:20,50.63046,-96.980775,10.3,12.3,11,988.00,-8.0,83,0.75,0.0,1016.71,203.5
2019-12-25 03:30,50.6304533333333,-96.980765,9.9,11.8,13,988.32,-8.0,83,0.75,0.0,1017.05,203.5
2019-12-25 03:40,50.6304433333333,-96.9807716666667,8.6,11.0,10,988.58,-8.0,84,0.75,0.0,1017.31,203.5
2019-12-25 03:50,50.630455,-96.9807766666667,7.1,9.0,6,988.96,-8.0,83,0.75,0.0,1017.70,203.5
2019-12-25 04:00,50.6304566666667,-96.98077,6.5,7.8,12,988.99,-8.0,84,0.75,0.0,1017.74,90.0
2019-12-25 04:10,50.6304616666667,-96.980775,7.0,8.6,11,988.83,-8.0,84,0.75,0.0,1017.57,90.0
2019-12-25 04:20,50.6304616666667,-96.980765,7.0,8.5,27,988.74,-8.0,86,0.75,0.0,1017.48,90.0
2019-12-25 04:30,50.63046,-96.9807633333333,10.3,13.4,24,988.38,-8.0,86,0.75,0.0,1017.11,90.0
2019-12-25 04:40,50.63046,-96.980765,12.3,13.9,21,987.82,-8.1,86,0.75,0.0,1016.53,90.0
2019-12-25 04:50,50.63046,-96.9807633333333,11.5,13.3,18,988.00,-8.2,87,0.75,0.0,1016.72,90.0
2019-12-25 05:00,50.63046,-96.98076,11.4,13.9,20,988.14,-8.2,86,0.75,0.0,1016.87,360.0
2019-12-25 05:10,50.63046,-96.98076,9.3,11.2,21,988.38,-8.2,87,0.75,0.0,1017.12,360.0
2019-12-25 05:20,50.630465,-96.9807566666667,8.3,10.5,10,988.63,-8.2,86,0.75,0.0,1017.38,360.0
2019-12-25 05:30,50.6304566666667,-96.9807633333333,6.8,8.6,7,988.77,-8.2,87,0.75,0.0,1017.52,360.0
2019-12-25 05:40,50.6304633333333,-96.9807233333333,7.8,9.1,27,988.53,-8.2,88,0.75,0.0,1017.28,360.0
2019-12-25 05:50,50.630455,-96.9807383333333,7.4,9.1,24,988.61,-8.2,88,0.75,0.0,1017.36,360.0
2019-12-25 06:00,50.6304633333333,-96.9808033333333,7.0,8.5,25,988.57,-8.3,88,0.75,0.0,1017.32,287.3
2019-12-25 06:10,50.630465,-96.9807783333333,6.7,8.7,30,988.79,-8.2,89,0.75,0.0,1017.54,287.3
2019-12-25 06:20,50.630465,-96.9807716666667,5.6,6.9,32,988.96,-8.2,88,0.75,0.0,1017.71,287.3
2019-12-25 06:30,50.630465,-96.9807683333333,5.1,6.3,32,989.05,-8.2,89,0.76,0.0,1017.81,287.3
2019-12-25 06:40,50.630465,-96.9807666666667,5.7,6.9,33,989.00,-8.2,89,0.76,0.0,1017.77,287.3
2019-12-25 06:50,50.630465,-96.9807666666667,5.8,7.0,33,988.95,-8.2,90,0.76,0.0,1017.71,287.3
2019-12-25 07:00,50.6304666666667,-96.9807683333333,6.9,7.8,32,988.73,-8.2,90,0.76,0.0,1017.49,360.0
2019-12-25 07:10,50.63048,-96.9807683333333,6.4,7.9,41,988.77,-8.1,91,0.76,0.0,1017.53,360.0
2019-12-25 07:20,50.6304866666667,-96.9807466666667,6.0,7.7,38,988.86,-8.1,91,0.76,0.0,1017.62,360.0
2019-12-25 07:30,50.6304833333333,-96.9807616666667,6.7,8.2,37,988.74,-8.1,92,0.76,0.0,1017.50,360.0
2019-12-25 07:40,50.6304816666667,-96.980765,7.2,9.1,38,988.53,-8.1,93,0.76,0.0,1017.28,360.0
2019-12-25 07:50,50.63048,-96.980765,6.9,8.2,47,988.60,-8.1,94,0.76,0.0,1017.36,360.0
2019-12-25 08:00,50.6304716666667,-96.980755,7.3,9.1,41,988.67,-8.2,94,0.76,0.0,1017.43,360.0
2019-12-25 08:10,50.630495,-96.9807833333333,7.3,8.7,47,988.83,-8.1,95,0.75,0.0,1017.59,360.0
2019-12-25 08:20,50.63048,-96.98077,6.4,8.1,39,989.09,-8.1,96,0.75,0.0,1017.86,360.0
2019-12-25 08:30,50.6304766666667,-96.9807716666667,6.0,8.3,28,989.02,-8.2,96,0.75,0.0,1017.79,360.0
2019-12-25 08:40,50.6304766666667,-96.98077,6.9,8.6,34,988.95,-8.2,97,0.74,0.0,1017.72,360.0
2019-12-25 08:50,50.630465,-96.9807633333333,7.1,8.2,35,989.09,-8.2,97,0.74,0.0,1017.85,360.0
2019-12-25 09:00,50.6304666666667,-96.980755,6.2,7.2,25,989.09,-8.2,97,0.73,0.0,1017.86,80.0
2019-12-25 09:10,50.6304716666667,-96.98076,7.1,8.5,27,989.01,-8.2,97,0.73,0.0,1017.77,80.0
2019-12-25 09:20,50.63047,-96.98076,6.7,8.3,22,989.00,-8.2,97,0.74,0.0,1017.76,80.0
2019-12-25 09:30,50.6304733333333,-96.98077,8.2,10.2,26,988.86,-8.2,98,0.74,0.0,1017.62,80.0
2019-12-25 09:40,50.63047,-96.9807516666667,9.1,10.4,28,988.60,-8.2,98,0.74,0.0,1017.35,80.0
2019-12-25 09:50,50.6304733333333,-96.98076,8.3,10.2,26,988.55,-8.2,98,0.74,0.0,1017.30,80.0
2019-12-25 10:00,50.6304716666667,-96.9807583333333,8.5,10.5,29,988.61,-8.1,98,0.74,0.0,1017.36,12.6
2019-12-25 10:10,50.63047,-96.98076,7.9,9.1,25,988.58,-8.1,98,0.74,0.0,1017.33,12.6
2019-12-25 10:20,50.63047,-96.98076,8.2,9.3,18,988.49,-8.1,98,0.74,0.0,1017.24,12.6
2019-12-25 10:30,50.63048,-96.98077,9.3,10.7,18,988.33,-8.1,98,0.74,0.0,1017.07,12.6
2019-12-25 10:40,50.63046,-96.9807616666667,9.0,10.7,16,988.27,-8.0,98,0.74,0.0,1017.00,12.6
2019-12-25 10:50,50.63046,-96.9807583333333,10.1,12.0,22,988.24,-7.9,98,0.73,0.0,1016.97,12.6
2019-12-25 11:00,50.6304633333333,-96.9807583333333,9.9,11.6,30,988.22,-7.9,98,0.73,0.0,1016.95,360.0
2019-12-25 11:10,50.6304633333333,-96.980755,10.2,12.1,31,988.16,-7.8,99,0.73,0.0,1016.88,360.0
2019-12-25 11:20,50.630465,-96.980755,10.0,11.7,34,988.16,-7.8,99,0.73,0.0,1016.88,360.0
2019-12-25 11:30,50.630465,-96.9807583333333,9.9,11.8,37,988.26,-7.7,99,0.74,0.0,1016.98,360.0
2019-12-25 11:40,50.630465,-96.9807583333333,9.9,12.1,41,988.30,-7.7,99,0.75,0.0,1017.02,360.0
2019-12-25 11:50,50.630465,-96.98076,8.8,10.5,43,988.29,-7.7,99,0.75,0.0,1017.01,360.0
2019-12-25 12:00,50.6304766666667,-96.9807666666667,9.5,11.3,43,988.26,-7.6,99,0.75,0.0,1016.97,345.5
2019-12-25 12:10,50.6305183333333,-96.98079,9.4,11.3,41,988.28,-7.6,99,0.75,0.0,1016.99,345.5
2019-12-25 12:20,50.6304766666667,-96.98076,8.9,10.5,40,988.26,-7.6,99,0.75,0.0,1016.97,345.5
2019-12-25 12:30,50.63048,-96.9807683333333,9.2,11.1,43,988.15,-7.5,99,0.75,0.0,1016.84,345.5
2019-12-25 12:40,50.6304583333333,-96.9807683333333,9.5,11.1,44,988.13,-7.5,99,0.75,0.0,1016.83,345.5
2019-12-25 12:50,50.63046,-96.9807633333333,9.2,11.5,47,988.03,-7.5,99,0.75,0.0,1016.72,345.5
2019-12-25 13:00,50.6304616666667,-96.9807683333333,9.2,10.5,54,987.94,-7.5,99,0.75,0.0,1016.62,194.5
2019-12-25 13:10,50.6304633333333,-96.980765,8.6,10.0,56,988.00,-7.5,99,0.75,0.0,1016.67,194.5
2019-12-25 13:20,50.6304633333333,-96.9807666666667,8.7,10.3,50,987.89,-7.5,99,0.74,0.0,1016.56,194.5
2019-12-25 13:30,50.630465,-96.980765,8.3,9.9,52,987.80,-7.4,99,0.75,0.0,1016.47,194.5
2019-12-25 13:40,50.6304766666667,-96.9807683333333,7.5,9.9,39,987.69,-7.4,99,0.75,0.0,1016.35,194.5
2019-12-25 13:50,50.6304783333333,-96.9807616666667,8.4,9.7,40,987.50,-7.4,99,0.74,0.0,1016.15,194.5
2019-12-25 14:00,50.6304883333333,-96.980775,8.9,10.0,43,987.36,-7.3,99,0.74,0.0,1016.00,339.9
2019-12-25 14:10,50.6304583333333,-96.9807483333333,8.4,10.2,44,987.44,-7.3,99,0.74,0.0,1016.08,339.9
2019-12-25 14:20,50.6304716666667,-96.9807833333333,9.5,10.8,47,987.37,-7.2,99,0.74,0.0,1016.00,339.9
2019-12-25 14:30,50.6304683333333,-96.9807716666667,7.9,9.5,37,987.37,-7.2,99,0.73,0.0,1016.00,339.9
2019-12-25 14:40,50.6304666666667,-96.980765,7.8,9.4,44,987.52,-7.1,99,0.72,0.0,1016.15,339.9
2019-12-25 14:50,50.6304666666667,-96.980765,7.4,9.1,52,987.61,-7.0,99,0.71,0.0,1016.23,339.9
2019-12-25 15:00,50.6304666666667,-96.9807666666667,7.3,9.1,57,987.77,-6.9,99,0.70,0.0,1016.40,360.0
2019-12-25 15:10,50.6304666666667,-96.980765,6.8,8.5,59,988.01,-6.9,99,0.69,0.0,1016.64,360.0
2019-12-25 15:20,50.630465,-96.9807666666667,6.8,8.4,59,988.20,-6.7,99,0.69,0.0,1016.83,360.0
2019-12-25 15:30,50.630465,-96.98077,7.1,8.3,60,988.30,-6.7,99,0.70,0.0,1016.92,360.0
2019-12-25 15:40,50.630465,-96.98077,7.6,9.0,58,988.33,-6.6,99,0.71,0.0,1016.95,360.0
2019-12-25 15:50,50.6304716666667,-96.98078,8.0,9.5,56,988.42,-6.6,99,0.71,0.0,1017.03,360.0
2019-12-25 16:00,50.6304666666667,-96.980795,7.8,9.5,57,988.45,-6.5,99,0.72,0.0,1017.06,283.7
2019-12-25 16:10,50.6304583333333,-96.980775,7.0,8.8,65,988.57,-6.4,99,0.72,0.0,1017.18,283.7
2019-12-25 16:20,50.6304633333333,-96.980765,6.0,8.3,67,988.61,-6.3,99,0.71,0.0,1017.21,283.7
2019-12-25 16:30,50.6304633333333,-96.9807716666667,6.2,7.6,67,988.56,-6.3,99,0.72,0.0,1017.15,283.7
2019-12-25 16:40,50.6304616666667,-96.9807716666667,5.5,6.9,63,988.54,-6.2,99,0.72,0.0,1017.12,283.7
2019-12-25 16:50,50.63046,-96.98077,5.2,6.5,63,988.58,-6.2,99,0.72,0.0,1017.16,283.7
2019-12-25 17:00,50.6304583333333,-96.9807733333333,4.0,5.8,68,988.56,-6.1,99,0.71,0.0,1017.13,360.0
2019-12-25 17:10,50.6304566666667,-96.9807783333333,2.7,4.6,68,988.56,-6.0,99,0.71,0.0,1017.12,360.0
2019-12-25 17:20,50.6304566666667,-96.980775,3.2,4.2,71,988.47,-6.0,99,0.70,0.0,1017.02,360.0
2019-12-25 17:30,50.6304416666667,-96.9807783333333,3.6,4.6,67,988.42,-6.0,99,0.70,0.0,1016.97,360.0
2019-12-25 17:40,50.63045,-96.9807716666667,3.2,4.0,66,988.40,-5.9,99,0.70,0.0,1016.94,360.0
2019-12-25 17:50,50.6304483333333,-96.9807683333333,2.9,3.7,63,988.40,-5.9,99,0.70,0.0,1016.93,360.0
2019-12-25 18:00,50.63045,-96.9807666666667,2.9,4.0,63,988.27,-5.8,99,0.71,0.0,1016.80,161.1
2019-12-25 18:10,50.63045,-96.980765,3.3,4.5,54,988.16,-5.9,99,0.71,0.0,1016.68,161.1
2019-12-25 18:20,50.6304516666667,-96.9807633333333,3.9,4.7,48,987.94,-5.9,99,0.72,0.0,1016.45,161.1
2019-12-25 18:30,50.6304516666667,-96.9807633333333,4.5,5.5,52,987.70,-5.9,99,0.72,0.0,1016.20,161.1
2019-12-25 18:40,50.630475,-96.9807733333333,4.8,5.8,51,987.52,-5.8,99,0.73,0.0,1016.01,161.1
2019-12-25 18:50,50.63046,-96.9807716666667,4.7,5.7,53,987.43,-5.8,99,0.72,0.0,1015.91,161.1
2019-12-25 19:00,50.63046,-96.9807716666667,3.7,4.5,55,987.41,-5.7,99,0.72,0.0,1015.88,122.3
2019-12-25 19:10,50.6304566666667,-96.9807716666667,3.2,4.3,61,987.38,-5.6,99,0.72,0.0,1015.84,122.3
2019-12-25 19:20,50.630455,-96.9807716666667,2.9,3.7,69,987.27,-5.4,99,0.72,0.0,1015.72,122.3
2019-12-25 19:30,50.6304566666667,-96.980765,2.0,3.0,74,987.21,-5.3,99,0.72,0.0,1015.64,122.3
2019-12-25 19:40,50.63046,-96.9807666666667,1.3,2.2,81,987.17,-5.1,99,0.72,0.0,1015.60,122.3
2019-12-25 19:50,50.6304533333333,-96.9807616666667,0.8,2.1,63,987.09,-5.0,99,0.73,0.0,1015.50,122.3
2019-12-25 20:00,50.6304533333333,-96.9807633333333,1.2,2.4,57,987.04,-5.1,99,0.74,0.0,1015.45,167.4
2019-12-25 20:10,50.6304533333333,-96.9807683333333,0.8,1.8,30,987.08,-5.1,99,0.75,0.0,1015.50,167.4
2019-12-25 20:20,50.6304533333333,-96.98077,0.6,1.9,45,987.11,-5.1,99,0.75,0.0,1015.53,167.4
2019-12-25 20:30,50.6304533333333,-96.9807683333333,0.2,1.3,32,987.15,-5.2,99,0.76,0.0,1015.57,167.4
2019-12-25 20:40,50.630455,-96.98077,0.5,1.7,21,987.07,-5.2,99,0.76,0.0,1015.49,167.4
2019-12-25 20:50,50.630455,-96.9807683333333,0.5,1.3,17,986.98,-5.2,99,0.76,0.0,1015.39,167.4
2019-12-25 21:00,50.630455,-96.98077,0.2,1.0,346,987.02,-5.3,99,0.76,0.0,1015.43,90.0
2019-12-25 21:10,50.630455,-96.9807716666667,0.2,1.1,359,986.97,-5.2,99,0.76,0.0,1015.37,90.0
2019-12-25 21:20,50.630455,-96.9807716666667,1.1,2.0,8,986.93,-5.2,99,0.76,0.0,1015.32,90.0
2019-12-25 21:30,50.630455,-96.98077,0.8,2.2,11,986.97,-5.3,99,0.77,0.0,1015.35,90.0
2019-12-25 21:40,50.630455,-96.98077,0.4,1.3,9,987.01,-5.2,99,0.77,0.0,1015.39,90.0
2019-12-25 21:50,50.630455,-96.9807716666667,0.4,1.3,35,987.09,-5.1,99,0.77,0.0,1015.47,90.0
2019-12-25 22:00,50.6304566666667,-96.9807716666667,0.9,1.7,34,987.13,-5.1,99,0.77,0.0,1015.52,360.0
2019-12-25 22:10,50.6304566666667,-96.9807716666667,1.9,3.4,8,987.04,-5.2,99,0.77,0.0,1015.43,360.0
2019-12-25 22:20,50.6304566666667,-96.98077,2.0,2.7,12,986.97,-5.3,99,0.77,0.0,1015.36,360.0
2019-12-25 22:30,50.6304566666667,-96.98077,2.0,2.7,355,986.96,-5.3,99,0.77,0.0,1015.35,360.0
2019-12-25 22:40,50.6304466666667,-96.98076,2.7,3.4,1,986.91,-5.2,99,0.77,0.0,1015.29,360.0
2019-12-25 22:50,50.6304533333333,-96.9807633333333,2.3,3.2,351,986.99,-5.2,99,0.77,0.0,1015.38,360.0
2019-12-25 23:00,50.63045,-96.9807533333333,1.7,2.4,323,987.12,-5.3,99,0.77,0.0,1015.52,90.0
2019-12-25 23:10,50.6304516666667,-96.9807616666667,1.8,2.7,316,987.18,-5.3,99,0.77,0.0,1015.58,90.0
2019-12-25 23:20,50.6304533333333,-96.9807633333333,1.6,2.3,326,987.24,-5.2,99,0.77,0.0,1015.64,90.0
2019-12-25 23:30,50.6304566666667,-96.9807633333333,1.8,2.4,325,987.22,-5.2,99,0.77,0.0,1015.61,90.0
2019-12-25 23:40,50.6304583333333,-96.980765,1.8,2.5,328,987.22,-5.2,99,0.77,0.0,1015.61,90.0
2019-12-25 23:50,50.6304616666667,-96.980765,1.3,2.2,311,987.19,-5.2,99,0.77,0.0,1015.57,90.0
